User: anonymous   Login
Location: Unspecified
(0.0000°N, 0.0000°E)
Time: 07:20:38
(UTC+00:00)
Language:

Cosmos 1602 - Orbit

View from above orbital plane
View from above orbital plane
View from above satellite
View from above satellite

Ground track
Ground track

The orbit data is extracted from the following two-line orbital elements,

1 15331U 84105A   18014.86395024 +.00000318 +00000-0 +16160-4 0  9992
2 15331 082.5397 115.6455 0013514 278.9087 081.0614 15.13180106813593
Epoch (UTC): 14 January 2018 20:44:05
Eccentricity: 0.0013514
inclination: 82.5397°
perigee height: 517 km
apogee height: 536 km
right ascension of ascending node: 115.6455°
argument of perigee: 278.9087°
revolutions per day: 15.13180106
mean anomaly at epoch: 81.0614°
orbit number at epoch: 81359

The dashed part of the orbit path shows where the satellite is in the earth's shadow,  

DLR